Thermal, CA

5:46 PM PST on December 11, 2017 (GMT -0800)
Desert Resorts Regional

Weather History for KTRM - May, 2013

Change the Weather History Date:

Saturday, May 25, 2013

  Actual Average Record
Temperature  
Mean Temperature 81 °F 80 °F  
Max Temperature 95 °F 98 °F 114 °F (1951)
Min Temperature 67 °F 63 °F 54 °F (1980)
Degree Days  
Heating Degree Days 0 0  
Month to date heating degree days 0 0  
Since 1 July heating degree days 1124 1180  
Cooling Degree Days 16 15  
Month to date cooling degree days 372 319  
Year to date cooling degree days 800 575  
Growing Degree Days 30 (Base 50)    
Moisture  
Dew Point 36 °F    
Average Humidity 24    
Maximum Humidity 42    
Minimum Humidity 6    
Precipitation  
Precipitation 0.00 in 0.00 in 0.00 in (2017)
Month to date precipitation 0.00 0.02  
Year to date precipitation 0.44 1.79  
Since 1 July precipitation 2.62  
Snow  
Snow 0.00 in - - ()
Month to date snowfall 0.0  
Year to date snowfall 0.0  
Snow Depth 0.00 in    
Sea Level Pressure  
Sea Level Pressure 29.80 in    
Wind  
Wind Speed 9 mph (NNW)    
Max Wind Speed 22 mph    
Max Gust Speed 28 mph    
Visibility 10 miles    
Events      
T = Trace of Precipitation, MM = Missing Value Source: NWS Daily Summary

Daily Weather History Graph

Daily Weather History Graph

Search for Another Location

Airport or City:

Trip Planner

Search our weather history database for the weather conditions in past years. The results will help you decide how hot, cold, wet, or windy it might be!

Date:

Astronomy

May. 25, 2013 Rise Set
Actual Time 5:37 AM PDT 7:45 PM PDT
Civil Twilight 5:09 AM PDT 8:13 PM PDT
Nautical Twilight 4:35 AM PDT 8:48 PM PDT
Astronomical Twilight 3:58 AM PDT 9:25 PM PDT
Moon 8:38 PM PDT (5/25) 6:08 AM PDT (5/25)
Length of Visible Light 15h 04m
Length of Day
14h 07m
Waxing Gibbous, 99% of the Moon is Illuminated
May 25
Waxing Gibbous
May 31
Last Quarter
Jun 8
New
Jun 16
First Quarter
Jun 23
Full

Hourly Weather History & Observations

Time (PDT) Temp. Dew Point Humidity Pressure Visibility Wind Dir Wind Speed Gust Speed Precip Events Conditions
12:52 AM 73.9 °F 43.0 °F 33% 29.77 in 10.0 mi NNW 19.6 mph 28.8 mph N/A   Clear
1:52 AM 73.0 °F 42.1 °F 33% 29.76 in 10.0 mi NNW 15.0 mph 23.0 mph N/A   Clear
2:52 AM 72.0 °F 39.9 °F 31% 29.77 in 10.0 mi NW 16.1 mph 21.9 mph N/A   Clear
3:52 AM 71.1 °F 41.0 °F 34% 29.78 in 10.0 mi NW 15.0 mph - N/A   Clear
4:52 AM 70.0 °F 43.0 °F 38% 29.79 in 10.0 mi NW 10.4 mph - N/A   Clear
5:52 AM 66.9 °F 43.0 °F 42% 29.81 in 10.0 mi WNW 9.2 mph - N/A   Clear
6:52 AM 70.0 °F 43.0 °F 38% 29.82 in 10.0 mi NW 10.4 mph - N/A   Clear
7:52 AM 73.0 °F 44.1 °F 35% 29.84 in 10.0 mi NW 10.4 mph - N/A   Clear
8:52 AM 78.1 °F 39.9 °F 25% 29.85 in 10.0 mi NW 11.5 mph - N/A   Clear
9:52 AM 80.1 °F 37.0 °F 21% 29.85 in 10.0 mi Calm Calm - N/A   Clear
10:52 AM 84.9 °F 26.1 °F 12% 29.85 in 10.0 mi East 4.6 mph - N/A   Clear
11:52 AM 88.0 °F 23.0 °F 9% 29.85 in 10.0 mi Variable 3.5 mph - N/A   Clear
12:52 PM 90.0 °F 26.1 °F 10% 29.83 in 10.0 mi Variable 3.5 mph - N/A   Clear
1:52 PM 91.9 °F 27.0 °F 10% 29.82 in 10.0 mi East 10.4 mph - N/A   Clear
2:52 PM 93.0 °F 25.0 °F 9% 29.80 in 10.0 mi SE 6.9 mph - N/A   Clear
3:52 PM 93.0 °F 19.9 °F 7% 29.78 in 10.0 mi ESE 5.8 mph - N/A   Clear
4:52 PM 93.9 °F 18.0 °F 6% 29.76 in 10.0 mi Calm Calm - N/A   Clear
5:52 PM 93.0 °F 25.0 °F 9% 29.75 in 10.0 mi Calm Calm - N/A   Clear
6:52 PM 91.0 °F 30.9 °F 12% 29.75 in 10.0 mi NNW 11.5 mph - N/A   Clear
7:52 PM 84.9 °F 39.0 °F 20% 29.75 in 10.0 mi NNW 15.0 mph - N/A   Clear
8:52 PM 82.0 °F 43.0 °F 25% 29.77 in 10.0 mi North 17.3 mph 25.3 mph N/A   Clear
9:52 PM 79.0 °F 44.1 °F 29% 29.78 in 10.0 mi NNW 19.6 mph - N/A   Clear
10:52 PM 77.0 °F 44.1 °F 31% 29.79 in 10.0 mi NNW 19.6 mph 27.6 mph N/A   Clear
11:52 PM 73.9 °F 46.0 °F 37% 29.80 in 10.0 mi NNW 15.0 mph 23.0 mph N/A   Clear